Regional Weather Roundup
Issued by NWS

Home | Current Version | Previous Version | Text Only | Print | Product List | Glossary Off
Versions: 1 2 3 4 5 6 7 8 9 10 11 12 13 14 15 16 17 18 19 20 21 22 23 24 25 26 27 28 29 30 31 32 33 34 35 36 37 38 39 40 41 42 43 44 45 46 47 48 49 50

000
ASUS43 KMPX 152110
RWRMN
WEATHER ROUNDUP FOR MINNESOTA
NATIONAL WEATHER SERVICE TWIN CITIES/CHANHASSEN MN
300 PM CST MON JAN 15 2018


NOTE: "FAIR" INDICATES FEW OR NO CLOUDS BELOW 12,000 FEET WITH NO
SIGNIFICANT WEATHER AND/OR OBSTRUCTIONS TO VISIBILITY. N/A MEANS
CURRENT SKY AND/OR WEATHER CONDITIONS ARE NOT AVAILABLE.

MNZ060>063-068>070-152200-
   Twin Cities Metro

CITY           SKY/WX    TMP DP  RH WIND       PRES   REMARKS
TWIN CITIES    FLURRIES   5  -3  69 NW16      30.42R WCI -14
ST PAUL        PTSUNNY    6  -3  66 NW20      30.43R WCI -14
CRYSTAL        CLOUDY     4  -6  63 NW13G23   30.42R WCI -13
BLAINE         PTSUNNY    7  -2  66 NW13G21   30.41R WCI  -9
LAKEVILLE      FAIR       3  -2  78 NW15      30.41R WCI -15
EDEN PRAIRIE   CLOUDY     4  -6  63 NW18G28   30.42R HAZE    WCI -16
SOUTH ST PAUL  CLOUDY     6  -3  65 NW13G20   30.41R WCI -10
LAKE ELMO      FAIR       9   0  66 NW16      30.40R HAZE    WCI  -9
$$
MNZ001>005-007-008-013>017-022>024-027-028-152200-
   Northwest Minnesota

CITY           SKY/WX    TMP DP  RH WIND       PRES   REMARKS
BEMIDJI        FAIR      -3 -11  68 N14G20    30.54R WCI -23
HALLOCK        CLOUDY    -9 -17  70 N24       30.75R HAZE    WCI -36
ROSEAU         FAIR      -2  -9  71 N9        30.67R WCI -18
WARROAD        FAIR       0  -8  71 N12       30.65R WCI -18
THIEF RVR FALL FAIR      -7 -15  68 N13       30.67R WCI -27
CROOKSTON      HAZE     -11 -17  77 N21       30.72R VSB 1/2 WCI -37
FOSSTON        PTSUNNY   -6 -17  59 N15       30.62R WCI -27
DETROIT LAKES  CLOUDY    -8 -15  71 N20       30.58R HAZE    WCI -32
MOORHEAD       CLOUDY   -11 -18  70 N22       30.69R HAZE    WCI -38
PARK RAPIDS    FAIR      -3 -12  65 NW15      30.50R WCI -23
MAHNOMEN       CLOUDY    -9 -16  73 N17       30.61R WCI -33
$$
MNZ006-009>011-018-025>026-152200-
   North Central Minnesota

CITY           SKY/WX    TMP DP  RH WIND       PRES   REMARKS
BAUDETTE       FAIR      -5 -12  72 NW13      30.59R WCI -24
FLAG ISLAND    FAIR      -2  -9  71 N16       30.65R WCI -23
INTL FALLS     FAIR       2  -6  69 N10       30.55R WCI -14
WASKISH        PTSUNNY   -2  -9  71 N7        30.59R WCI -16
BIG FORK       PTSUNNY    3  -6  66 N6        30.50R WCI  -8
LONGVILLE      CLOUDY     0  -9  65 NW9G20    30.49R WCI -16
GRAND RAPIDS   CLOUDY     3  -4  72 N20       30.47R WCI -18
CRANE LAKE     CLOUDY     3  -2  78 N6        30.53R WCI  -8
ORR            CLOUDY     3  -4  72 NW6       30.46R WCI  -8
COOK           CLOUDY     5   0  78 N6        30.47R WCI  -6
WALKER         MOCLDY    -3 -12  65 NW13      30.52R WCI -22
$$
MNZ012-019>021-037-152200-
   Northeast Minnesota

CITY           SKY/WX    TMP DP  RH WIND       PRES   REMARKS
DULUTH         LGT SNOW   7   2  80 N20G28    30.34R BLWGSNOWWCI -13
ELY            LGT SNOW   9   3  78 MISG      30.41R
HIBBING        CLOUDY     3  -2  79 N15       30.42R WCI -16
EVELETH        PTSUNNY    5  -2  72 N10       30.43R HAZE    WCI -10
DULUTH HARBOR  CLOUDY    14   7  73 NW12      30.41R WCI   0
TWO HARBORS    LGT SNOW  16   7  67 N8G20     30.34R WCI   5
SILVER BAY     PTSUNNY   14   7  73 VRB8      30.34R WCI   3
GRAND MARAIS     N/A     21  13  71 N13G23    30.39R WCI   9
G MARAIS ARPRT LGT SNOW  12   7  79 N13       30.32R VSB 3/4 WCI  -3
$$
MNZ029>031-032-039>041-046>048-054>057-064-152200-
   West Central Minnesota

CITY           SKY/WX    TMP DP  RH WIND       PRES   REMARKS
FERGUS FALLS   PTSUNNY  -11 -18  70 N22G30    30.65S HAZE    WCI -38
WHEATON        PTSUNNY   -9 -17  70 NW22G28   30.66F HAZE    WCI -35
MORRIS         HAZE      -9 -15  77 NW28G35   30.56S VSB 1   WCI -38
ALEXANDRIA     FAIR      -5 -14  65 N21G26    30.49R WCI -29
ELBOW LAKE     CLOUDY   -11 -17  75 NW22G32   30.59R HAZE    WCI -38
WADENA         FAIR      -2 -13  60 NW16      30.50S WCI -23
GLENWOOD       FAIR      -6 -13  71 NW18G24   30.50S WCI -29
APPLETON       PTSUNNY   -8 -17  65 NW22G30   30.60R HAZE    WCI -33
BENSON         CLOUDY    -8 -17  65 N25G35    30.57R WCI -34
ORTONVILLE     PTSUNNY   -8 -17  65 N17G29    30.60S HAZE    WCI -31
MADISON        CLOUDY    -6 -11  77 NW24G31   30.60S HAZE    WCI -32
WILLMAR        PTSUNNY   -6 -13  71 NW24      30.53R WCI -32
$$
MNZ033>034-036-042>043-049>051-058-059-152200-
   Central Minnesota

CITY           SKY/WX    TMP DP  RH WIND       PRES   REMARKS
ST CLOUD       CLOUDY     2  -6  69 NW17      30.45R WCI -18
SAUK CENTRE      N/A     -3 -11  70 NW17      30.48R WCI -25
PAYNESVILLE    FAIR       1  -7  71 NW18      30.48R WCI -21
AITKIN         CLOUDY     3  -6  66 NW8       30.44R WCI -10
PINE RIVER     CLOUDY    -2  -9  71 NW14G21   30.50R WCI -21
BRAINERD       PTSUNNY    1  -8  66 N17       30.46R WCI -19
STAPLES        PTSUNNY    0 -11  60 N14G20    30.48R WCI -19
LONG PRAIRIE   FAIR       0  -9  65 W16G23    30.47R WCI -21
LITTLE FALLS   CLOUDY     3 -13  47 NW14      30.47R WCI -15
LITCHFIELD     FAIR       1  -8  66 NW16G26   30.47R WCI -18
BUFFALO        PTSUNNY    3  -6  66 NW14G21   30.46R WCI -15
MAPLE LAKE     PTSUNNY    4  -5  67 MISG      30.46R
HUTCHINSON     FAIR       2  -6  69 NW18G28   30.47R WCI -19
$$
MNZ037-044-045-052-053-152200-
   East Central Minnesota

CITY           SKY/WX    TMP DP  RH WIND       PRES   REMARKS
PRINCETON      FAIR       5  -4  66 NW14G20   30.43R WCI -12
MORA           LGT SNOW   9   0  66 NW12G21   30.42R WCI  -6
CAMBRIDGE      FLURRIES   7  -4  61 NW13G18   30.42S WCI  -9
RUSH CITY      FLURRIES   7  -2  65 NW10      30.41R WCI  -7
MOOSE LAKE     CLOUDY     9   0  66 N13G18    30.39R WCI  -7
HINCKLEY       FAIR       9   0  66 NW10G18   30.40R WCI  -6
CLOQUET        LGT SNOW   7   0  72 NW16G26   30.37R WCI -11
MCGREGOR       CLOUDY     7   0  72 NW15      30.43R WCI -11
$$
MNZ071>073-080-081-089-090-097-098-152200-
   Southwest Minnesota

CITY           SKY/WX    TMP DP  RH WIND       PRES   REMARKS
MONTEVIDEO     PTSUNNY   -6 -15  65 N24G35    30.57R WCI -32
GRANITE FALLS  CLOUDY    -4 -12  68 NW28G33   30.58R WCI -30
CANBY          SUNNY     -4 -12  69 W20       30.60R HAZE    WCI -27
MARSHALL       PTSUNNY   -8 -15  71 NW22G33   30.55R HAZE    WCI -33
REDWOOD FALLS  CLOUDY    -5 -12  72 NW18G31   30.53R HAZE    WCI -28
OLIVIA         CLOUDY    -2  -9  71 NW24G35   30.51R WCI -27
PIPESTONE      MOSUNNY   -4 -11  71 N24G30    30.49R HAZE    WCI -29
WINDOM         HAZE      -6 -18  54 NW25G33   30.46R VSB 1   WCI -32
WORTHINGTON    CLOUDY    -3  -9  75 NW29      30.46S WCI -29
JACKSON        CLOUDY    -4  -9  77 NW23G31   30.45R HAZE    WCI -29
SLAYTON        CLOUDY    -4 -11  73 NW21G29   30.47S HAZE    WCI -28
$$
MNZ065>067-074>077-082>085-091>093-152200-
   South Central Minnesota

CITY           SKY/WX    TMP DP  RH WIND       PRES   REMARKS
MANKATO        CLOUDY     1  -6  71 NW20G30   30.45R HAZE    WCI -20
NEW ULM        CLOUDY    -2 -11  65 NW22G31   30.49R HAZE    WCI -26
ST JAMES       CLOUDY    -2  -9  71 NW24G31   30.50R WCI -27
FAIRMONT       MOSUNNY   -3 -10  72 NW24G32   30.46R HAZE    WCI -28
GLENCOE        CLOUDY     3  -6  66 NW17G24   30.45R HAZE    WCI -17
FARIBAULT      FAIR       3  -6  66 NW10G17   30.41R WCI -12
OWATONNA       FAIR       1  -4  78 NW22G28   30.39R HAZE    WCI -21
WASECA         CLOUDY     3  -4  72 NW21      30.42R HAZE    WCI -18
ALBERT LEA     CLOUDY     0  -6  78 NW16G24   30.37R HAZE    WCI -21
$$
MNZ078>079-086>088-094>096-152200-
   Southeast Minnesota

CITY           SKY/WX    TMP DP  RH WIND       PRES   REMARKS
ROCHESTER      MIX PCPN   3  -2  79 NW22G33   30.31R WCI -19
RED WING       LGT SNOW   9  -2  61 NW14G21   30.37R WCI  -8
STANTON        FAIR       6  -3  67 NW14      30.39R WCI -12
DODGE CENTER   LGT SNOW   1  -4  78 NW18G25   30.33R WCI -19
WINONA         CLOUDY    10   3  72 NW20G26     N/A  WCI  -8
AUSTIN         CLOUDY     1  -6  71 N22G30    30.35R WCI -21
PRESTON        CLOUDY     4  -3  72 NW16G24   30.30R HAZE    WCI -15
$$
ABBREVIATIONS USED IN REMARKS
   TC - TEMPERATURES IN CELSIUS
  WCI - WIND CHILL INDEX
   HX - HEAT INDEX
  VSB - VISIBILITY
$$




USA.gov is the U.S. government's official web portal to all federal, state and local government web resources and services.